User: anonymous   Login
Location: Dampvalley
(47.9094°N, 6.1967°E)
Time: 17:53:20
(UTC+00:00)
Language:

CUBEBUG 2 - Orbit

View from above orbital plane
View from above orbital plane
View from above satellite
View from above satellite

Ground track
Ground track

The orbit data is extracted from the following two-line orbital elements,

1 39440U 13066AA  21341.14912415  .00000618  00000-0  91489-4 0  9994
2 39440  97.7007 302.1963 0080579  36.1337 324.5280 14.76413735433104
Epoch (UTC): 07 December 2021 03:34:44
Eccentricity: 0.0080579
inclination: 97.7007°
perigee height: 584 km
apogee height: 697 km
right ascension of ascending node: 302.1963°
argument of perigee: 36.1337°
revolutions per day: 14.76413735
mean anomaly at epoch: 324.5280°
orbit number at epoch: 43310

The dashed part of the orbit path shows where the satellite is in the earth's shadow,  

DLR